Location: Earls Croome
(52.0667°N, 2.2000°W)
Time: 21:36:16
(UTC+00:00)

Cosmos 1825 - Pass Details

Date: 17 November 2019
Orbit: 504 x 508 km, 82.5° (Epoch: 12 December)

Event Time Altitude Azimuth Distance (km) Brightness Sun altitude
Rises 05:52:04 0° 188° (S) 2,595 5.8 -15.1°
Reaches altitude 10° 05:54:11 10° 189° (S) 1,716 4.9 -14.7°
Maximum altitude 05:57:56 88° 104° (ESE) 513 2.1 -14.2°
Drops below altitude 10° 06:01:45 10° 11° (N) 1,732 4.8 -13.6°
Sets 06:03:53 0° 11° (NNE) 2,623 5.8 -13.3°
